FLOCK 2K-47

Last updated on Wed Feb 14 2018 16:20:52 GMT+0000 (Coordinated Universal Time)

1 42854U 17042AF 18045.46358623 .00007699 00000-0 22413-3 0 9998 2 42854 96.9924 308.2181 0009954 186.9744 173.1364 15.35622463 32796
UTC large
Height (km)
Speed (km/s)
/
Latitude / Longitude
Inclination (degrees)
Orbital Period (minutes)
Azimuth
Elevation
Range (km)
Doppler Factor

Next 0 passes for location: London (51.5072 / 0.1276)

Sorry there are no passes over London.